Time,TemperatureF,DewpointF,PressureIn,WindDirection,WindDirectionDegrees,WindSpeedMPH,WindSpeedGustMPH,Humidity,HourlyPrecipIn,Conditions,Clouds,dailyrainin,SoftwareType,DateUTC
2017-05-27 00:02:00,57.2,27.6,29.95,North,360,0.0,0.0,32,0.00,,---,0.00,VWS V15.00,2017-05-27 07:02:00,
2017-05-27 00:07:00,57.1,27.5,29.95,North,360,0.0,0.0,32,0.00,,---,0.00,VWS V15.00,2017-05-27 07:07:00,
2017-05-27 00:12:00,57.0,27.5,29.95,North,360,0.0,0.0,32,0.00,,---,0.00,VWS V15.00,2017-05-27 07:12:00,
2017-05-27 00:17:00,56.9,27.4,29.95,North,360,0.0,0.0,32,0.00,,---,0.00,VWS V15.00,2017-05-27 07:17:00,
2017-05-27 00:22:00,56.8,28.0,29.95,North,360,0.0,1.0,33,0.00,,---,0.00,VWS V15.00,2017-05-27 07:22:00,
2017-05-27 00:27:00,56.6,27.9,29.95,North,360,0.0,0.0,33,0.00,,---,0.00,VWS V15.00,2017-05-27 07:27:00,
2017-05-27 00:32:00,56.4,27.7,29.95,North,360,0.0,0.0,33,0.00,,---,0.00,VWS V15.00,2017-05-27 07:32:00,
2017-05-27 00:37:00,56.3,27.6,29.96,North,360,0.0,0.0,33,0.00,,---,0.00,VWS V15.00,2017-05-27 07:37:00,
2017-05-27 00:42:00,56.1,28.1,29.96,North,360,0.0,0.0,34,0.00,,---,0.00,VWS V15.00,2017-05-27 07:42:00,
2017-05-27 00:47:00,55.9,27.2,29.95,North,360,0.0,0.0,33,0.00,,---,0.00,VWS V15.00,2017-05-27 07:47:00,
2017-05-27 00:52:00,55.7,27.8,29.96,North,360,0.0,0.0,34,0.00,,---,0.00,VWS V15.00,2017-05-27 07:52:00,
2017-05-27 00:57:00,55.6,27.7,29.96,North,360,0.0,0.0,34,0.00,,---,0.00,VWS V15.00,2017-05-27 07:57:00,
2017-05-27 01:02:00,55.4,27.5,29.96,North,360,0.0,0.0,34,0.00,,---,0.00,VWS V15.00,2017-05-27 08:02:00,
2017-05-27 01:07:00,55.3,28.1,29.96,North,360,0.0,1.0,35,0.00,,---,0.00,VWS V15.00,2017-05-27 08:07:00,
2017-05-27 01:12:00,55.0,27.9,29.96,North,360,0.0,0.0,35,0.00,,---,0.00,VWS V15.00,2017-05-27 08:12:00,
2017-05-27 01:17:00,54.9,27.8,29.96,North,360,0.0,0.0,35,0.00,,---,0.00,VWS V15.00,2017-05-27 08:17:00,
2017-05-27 01:22:00,54.8,27.7,29.96,North,360,0.0,0.0,35,0.00,,---,0.00,VWS V15.00,2017-05-27 08:22:00,
2017-05-27 01:27:00,54.7,28.3,29.96,North,360,0.0,0.0,36,0.00,,---,0.00,VWS V15.00,2017-05-27 08:27:00,
2017-05-27 01:32:00,54.6,28.2,29.96,North,360,0.0,0.0,36,0.00,,---,0.00,VWS V15.00,2017-05-27 08:32:00,
2017-05-27 01:37:00,54.6,28.2,29.96,North,360,0.0,0.0,36,0.00,,---,0.00,VWS V15.00,2017-05-27 08:37:00,
2017-05-27 01:42:00,54.5,27.4,29.96,North,360,0.0,0.0,35,0.00,,---,0.00,VWS V15.00,2017-05-27 08:42:00,
2017-05-27 01:47:00,54.5,28.1,29.96,North,360,0.0,0.0,36,0.00,,---,0.00,VWS V15.00,2017-05-27 08:47:00,
2017-05-27 01:52:00,54.5,28.8,29.96,North,360,0.0,1.0,37,0.00,,---,0.00,VWS V15.00,2017-05-27 08:52:00,
2017-05-27 01:57:00,54.6,28.2,29.97,North,360,0.0,3.0,36,0.00,,---,0.00,VWS V15.00,2017-05-27 08:57:00,
2017-05-27 02:02:00,54.7,28.3,29.96,North,360,0.0,5.0,36,0.00,,---,0.00,VWS V15.00,2017-05-27 09:02:00,
2017-05-27 02:07:00,54.7,29.0,29.96,North,360,3.0,4.0,37,0.00,,---,0.00,VWS V15.00,2017-05-27 09:07:00,
2017-05-27 02:12:00,54.6,28.9,29.96,North,360,4.0,5.0,37,0.00,,---,0.00,VWS V15.00,2017-05-27 09:12:00,
2017-05-27 02:17:00,55.1,29.3,29.96,North,360,3.0,5.0,37,0.00,,---,0.00,VWS V15.00,2017-05-27 09:17:00,
2017-05-27 02:22:00,55.6,29.1,29.96,North,360,3.0,5.0,36,0.00,,---,0.00,VWS V15.00,2017-05-27 09:22:00,
2017-05-27 02:27:00,55.9,29.4,29.96,North,360,3.0,4.0,36,0.00,,---,0.00,VWS V15.00,2017-05-27 09:27:00,
2017-05-27 02:32:00,55.9,29.4,29.96,North,360,0.0,3.0,36,0.00,,---,0.00,VWS V15.00,2017-05-27 09:32:00,
2017-05-27 02:37:00,55.9,29.4,29.97,North,360,2.0,2.0,36,0.00,,---,0.00,VWS V15.00,2017-05-27 09:37:00,
2017-05-27 02:42:00,55.8,29.3,29.97,North,360,0.0,0.0,36,0.00,,---,0.00,VWS V15.00,2017-05-27 09:42:00,
2017-05-27 02:47:00,55.7,29.2,29.97,North,360,0.0,0.0,36,0.00,,---,0.00,VWS V15.00,2017-05-27 09:47:00,
2017-05-27 02:52:00,55.5,29.7,29.97,North,360,0.0,1.0,37,0.00,,---,0.00,VWS V15.00,2017-05-27 09:52:00,
2017-05-27 02:57:00,55.4,30.2,29.97,North,360,0.0,2.0,38,0.00,,---,0.00,VWS V15.00,2017-05-27 09:57:00,
2017-05-27 03:02:00,55.2,29.4,29.97,North,360,0.0,2.0,37,0.00,,---,0.00,VWS V15.00,2017-05-27 10:02:00,
2017-05-27 03:07:00,55.0,29.2,29.97,North,360,0.0,0.0,37,0.00,,---,0.00,VWS V15.00,2017-05-27 10:07:00,
2017-05-27 03:12:00,54.8,29.0,29.97,North,360,0.0,0.0,37,0.00,,---,0.00,VWS V15.00,2017-05-27 10:12:00,
2017-05-27 03:17:00,54.5,29.4,29.97,North,360,0.0,2.0,38,0.00,,---,0.00,VWS V15.00,2017-05-27 10:17:00,
2017-05-27 03:22:00,54.4,29.3,29.97,North,360,0.0,1.0,38,0.00,,---,0.00,VWS V15.00,2017-05-27 10:22:00,
2017-05-27 03:27:00,54.2,29.2,29.97,North,360,3.0,3.0,38,0.00,,---,0.00,VWS V15.00,2017-05-27 10:27:00,
2017-05-27 03:32:00,54.1,29.1,29.97,North,360,0.0,4.0,38,0.00,,---,0.00,VWS V15.00,2017-05-27 10:32:00,
2017-05-27 03:37:00,54.1,29.1,29.97,North,360,1.0,2.0,38,0.00,,---,0.00,VWS V15.00,2017-05-27 10:37:00,
2017-05-27 03:42:00,54.0,29.6,29.97,North,360,0.0,0.0,39,0.00,,---,0.00,VWS V15.00,2017-05-27 10:42:00,
2017-05-27 03:47:00,54.0,29.0,29.97,North,360,0.0,1.0,38,0.00,,---,0.00,VWS V15.00,2017-05-27 10:47:00,
2017-05-27 03:52:00,53.9,30.1,29.97,North,360,0.0,0.0,40,0.00,,---,0.00,VWS V15.00,2017-05-27 10:52:00,
2017-05-27 03:57:00,53.7,30.0,29.97,North,360,0.0,1.0,40,0.00,,---,0.00,VWS V15.00,2017-05-27 10:57:00,
2017-05-27 04:02:00,53.4,29.7,29.97,North,360,0.0,0.0,40,0.00,,---,0.00,VWS V15.00,2017-05-27 11:02:00,
2017-05-27 04:07:00,53.0,29.3,29.97,North,360,0.0,1.0,40,0.00,,---,0.00,VWS V15.00,2017-05-27 11:07:00,
2017-05-27 04:12:00,52.8,29.8,29.97,North,360,0.0,1.0,41,0.00,,---,0.00,VWS V15.00,2017-05-27 11:12:00,
2017-05-27 04:17:00,52.4,29.4,29.97,North,360,1.0,3.0,41,0.00,,---,0.00,VWS V15.00,2017-05-27 11:17:00,
2017-05-27 04:22:00,52.1,29.7,29.97,North,360,2.0,2.0,42,0.00,,---,0.00,VWS V15.00,2017-05-27 11:22:00,
2017-05-27 04:27:00,51.7,29.9,29.97,North,360,1.0,4.0,43,0.00,,---,0.00,VWS V15.00,2017-05-27 11:27:00,
2017-05-27 04:32:00,51.4,29.7,29.97,North,360,4.0,5.0,43,0.00,,---,0.00,VWS V15.00,2017-05-27 11:32:00,
2017-05-27 04:37:00,51.1,29.4,29.97,North,360,0.0,3.0,43,0.00,,---,0.00,VWS V15.00,2017-05-27 11:37:00,
2017-05-27 04:42:00,51.0,29.9,29.97,North,360,1.0,1.0,44,0.00,,---,0.00,VWS V15.00,2017-05-27 11:42:00,
2017-05-27 04:47:00,50.9,29.8,29.97,North,360,2.0,3.0,44,0.00,,---,0.00,VWS V15.00,2017-05-27 11:47:00,
2017-05-27 04:52:00,50.7,29.6,29.97,North,360,0.0,3.0,44,0.00,,---,0.00,VWS V15.00,2017-05-27 11:52:00,
2017-05-27 04:56:00,50.6,30.1,29.97,North,360,3.0,5.0,45,0.00,,---,0.00,VWS V15.00,2017-05-27 11:56:00,
2017-05-27 05:01:00,50.4,29.9,29.98,North,360,4.0,4.0,45,0.00,,---,0.00,VWS V15.00,2017-05-27 12:01:00,
2017-05-27 05:06:00,50.3,29.8,29.98,North,360,4.0,5.0,45,0.00,,---,0.00,VWS V15.00,2017-05-27 12:06:00,
2017-05-27 05:11:00,50.2,29.7,29.98,North,360,1.0,2.0,45,0.00,,---,0.00,VWS V15.00,2017-05-27 12:11:00,
2017-05-27 05:16:00,50.1,30.1,29.98,North,360,3.0,5.0,46,0.00,,---,0.00,VWS V15.00,2017-05-27 12:16:00,
2017-05-27 05:21:00,50.1,30.1,29.98,North,360,4.0,5.0,46,0.00,,---,0.00,VWS V15.00,2017-05-27 12:21:00,
2017-05-27 05:26:00,50.0,30.0,29.98,North,360,4.0,6.0,46,0.00,,---,0.00,VWS V15.00,2017-05-27 12:26:00,
2017-05-27 05:31:00,49.9,30.0,29.98,North,360,3.0,4.0,46,0.00,,---,0.00,VWS V15.00,2017-05-27 12:31:00,
2017-05-27 05:36:00,49.8,29.9,29.98,North,360,3.0,6.0,46,0.00,,---,0.00,VWS V15.00,2017-05-27 12:36:00,
2017-05-27 05:41:00,49.7,29.8,29.98,North,360,3.0,4.0,46,0.00,,---,0.00,VWS V15.00,2017-05-27 12:41:00,
2017-05-27 05:46:00,49.5,29.6,29.98,North,360,2.0,5.0,46,0.00,,---,0.00,VWS V15.00,2017-05-27 12:46:00,
2017-05-27 05:51:00,49.5,30.1,29.99,North,360,6.0,6.0,47,0.00,,---,0.00,VWS V15.00,2017-05-27 12:51:00,
2017-05-27 05:56:00,49.2,30.4,29.99,North,360,6.0,7.0,48,0.00,,---,0.00,VWS V15.00,2017-05-27 12:56:00,
2017-05-27 06:01:00,49.1,30.3,29.99,North,360,5.0,6.0,48,0.00,,---,0.00,VWS V15.00,2017-05-27 13:01:00,
2017-05-27 06:06:00,49.1,30.3,29.99,North,360,6.0,7.0,48,0.00,,---,0.00,VWS V15.00,2017-05-27 13:06:00,
2017-05-27 06:11:00,49.3,31.0,29.99,North,360,5.0,6.0,49,0.00,,---,0.00,VWS V15.00,2017-05-27 13:11:00,
2017-05-27 06:16:00,49.6,30.7,29.99,North,360,4.0,5.0,48,0.00,,---,0.00,VWS V15.00,2017-05-27 13:16:00,
2017-05-27 06:21:00,49.9,31.0,29.99,North,360,1.0,3.0,48,0.00,,---,0.00,VWS V15.00,2017-05-27 13:21:00,
2017-05-27 06:26:00,50.3,30.9,29.99,North,360,0.0,5.0,47,0.00,,---,0.00,VWS V15.00,2017-05-27 13:26:00,
2017-05-27 06:31:00,50.6,31.6,30.00,North,360,2.0,3.0,48,0.00,,---,0.00,VWS V15.00,2017-05-27 13:31:00,
2017-05-27 06:36:00,50.9,31.9,30.00,North,360,1.0,1.0,48,0.00,,---,0.00,VWS V15.00,2017-05-27 13:36:00,
2017-05-27 06:41:00,51.3,31.8,30.00,North,360,0.0,1.0,47,0.00,,---,0.00,VWS V15.00,2017-05-27 13:41:00,
2017-05-27 06:46:00,51.6,32.0,30.00,North,360,0.0,1.0,47,0.00,,---,0.00,VWS V15.00,2017-05-27 13:46:00,
2017-05-27 06:51:00,52.1,32.5,30.00,North,360,0.0,0.0,47,0.00,,---,0.00,VWS V15.00,2017-05-27 13:51:00,
2017-05-27 06:56:00,52.6,33.0,30.01,North,360,1.0,2.0,47,0.00,,---,0.00,VWS V15.00,2017-05-27 13:56:00,
2017-05-27 07:01:00,53.1,33.4,30.01,North,360,2.0,3.0,47,0.00,,---,0.00,VWS V15.00,2017-05-27 14:01:00,
2017-05-27 07:06:00,53.8,33.0,30.01,North,360,0.0,3.0,45,0.00,,---,0.00,VWS V15.00,2017-05-27 14:06:00,
2017-05-27 07:07:00,53.9,33.1,30.01,North,360,4.0,4.0,45,0.00,,---,0.00,VWS V15.00,2017-05-27 14:07:00,
2017-05-27 07:12:00,54.4,33.5,30.01,North,360,0.0,2.0,45,0.00,,---,0.00,VWS V15.00,2017-05-27 14:12:00,
2017-05-27 07:17:00,55.0,33.5,30.01,North,360,0.0,1.0,44,0.00,,---,0.00,VWS V15.00,2017-05-27 14:17:00,
2017-05-27 07:22:00,55.7,33.6,30.01,North,360,1.0,2.0,43,0.00,,---,0.00,VWS V15.00,2017-05-27 14:22:00,
2017-05-27 07:27:00,56.4,32.4,30.01,North,360,0.0,3.0,40,0.00,,---,0.00,VWS V15.00,2017-05-27 14:27:00,
2017-05-27 07:32:00,57.3,31.9,30.01,North,360,2.0,6.0,38,0.00,,---,0.00,VWS V15.00,2017-05-27 14:32:00,
2017-05-27 07:37:00,57.9,32.5,30.01,North,360,1.0,2.0,38,0.00,,---,0.00,VWS V15.00,2017-05-27 14:37:00,
2017-05-27 07:42:00,58.5,32.3,30.01,North,360,4.0,5.0,37,0.00,,---,0.00,VWS V15.00,2017-05-27 14:42:00,
2017-05-27 07:47:00,58.9,32.0,30.01,North,360,5.0,5.0,36,0.00,,---,0.00,VWS V15.00,2017-05-27 14:47:00,
2017-05-27 07:52:00,59.3,31.7,30.01,North,360,5.0,7.0,35,0.00,,---,0.00,VWS V15.00,2017-05-27 14:52:00,
2017-05-27 07:57:00,59.6,31.9,30.01,North,360,3.0,7.0,35,0.00,,---,0.00,VWS V15.00,2017-05-27 14:57:00,
2017-05-27 08:02:00,59.7,31.3,30.01,North,360,5.0,6.0,34,0.00,,---,0.00,VWS V15.00,2017-05-27 15:02:00,
2017-05-27 08:07:00,60.1,31.7,30.01,North,360,1.0,7.0,34,0.00,,---,0.00,VWS V15.00,2017-05-27 15:07:00,
2017-05-27 08:12:00,60.5,32.0,30.01,North,360,2.0,5.0,34,0.00,,---,0.00,VWS V15.00,2017-05-27 15:12:00,
2017-05-27 08:17:00,60.6,32.1,30.02,North,360,4.0,4.0,34,0.00,,---,0.00,VWS V15.00,2017-05-27 15:17:00,
2017-05-27 08:22:00,61.1,32.5,30.02,North,360,7.0,7.0,34,0.00,,---,0.00,VWS V15.00,2017-05-27 15:22:00,
2017-05-27 08:27:00,61.4,32.1,30.02,North,360,5.0,7.0,33,0.00,,---,0.00,VWS V15.00,2017-05-27 15:27:00,
2017-05-27 08:32:00,61.7,31.6,30.02,North,360,5.0,6.0,32,0.00,,---,0.00,VWS V15.00,2017-05-27 15:32:00,
2017-05-27 08:37:00,62.1,32.7,30.02,North,360,3.0,8.0,33,0.00,,---,0.00,VWS V15.00,2017-05-27 15:37:00,
2017-05-27 08:42:00,62.5,32.3,30.02,North,360,0.0,6.0,32,0.00,,---,0.00,VWS V15.00,2017-05-27 15:42:00,
2017-05-27 08:47:00,63.1,32.0,30.02,North,360,3.0,8.0,31,0.00,,---,0.00,VWS V15.00,2017-05-27 15:47:00,
2017-05-27 08:52:00,63.3,32.2,30.02,North,360,3.0,8.0,31,0.00,,---,0.00,VWS V15.00,2017-05-27 15:52:00,
2017-05-27 08:57:00,63.6,31.6,30.02,North,360,7.0,9.0,30,0.00,,---,0.00,VWS V15.00,2017-05-27 15:57:00,
2017-05-27 09:02:00,63.9,32.7,30.02,North,360,1.0,4.0,31,0.00,,---,0.00,VWS V15.00,2017-05-27 16:02:00,
2017-05-27 09:07:00,64.6,32.5,30.02,North,360,3.0,7.0,30,0.00,,---,0.00,VWS V15.00,2017-05-27 16:07:00,
2017-05-27 09:12:00,64.9,30.1,30.02,North,360,3.0,6.0,27,0.00,,---,0.00,VWS V15.00,2017-05-27 16:12:00,
2017-05-27 09:17:00,64.7,29.0,30.02,North,360,4.0,10.0,26,0.00,,---,0.00,VWS V15.00,2017-05-27 16:17:00,
2017-05-27 09:22:00,64.9,29.2,30.02,North,360,3.0,8.0,26,0.00,,---,0.00,VWS V15.00,2017-05-27 16:22:00,
2017-05-27 09:27:00,65.3,30.5,30.02,North,360,6.0,7.0,27,0.00,,---,0.00,VWS V15.00,2017-05-27 16:27:00,
2017-05-27 09:32:00,65.4,29.6,30.02,North,360,4.0,10.0,26,0.00,,---,0.00,VWS V15.00,2017-05-27 16:32:00,
2017-05-27 09:37:00,65.3,29.6,30.02,North,360,6.0,10.0,26,0.00,,---,0.00,VWS V15.00,2017-05-27 16:37:00,
2017-05-27 09:42:00,65.9,30.1,30.02,North,360,3.0,6.0,26,0.00,,---,0.00,VWS V15.00,2017-05-27 16:42:00,
2017-05-27 09:47:00,66.6,30.7,30.02,North,360,3.0,7.0,26,0.00,,---,0.00,VWS V15.00,2017-05-27 16:47:00,
2017-05-27 09:52:00,66.3,28.5,30.02,North,360,9.0,9.0,24,0.00,,---,0.00,VWS V15.00,2017-05-27 16:52:00,
2017-05-27 09:57:00,65.9,29.1,30.02,North,360,5.0,8.0,25,0.00,,---,0.00,VWS V15.00,2017-05-27 16:57:00,
2017-05-27 10:02:00,65.9,28.1,30.02,North,360,6.0,14.0,24,0.00,,---,0.00,VWS V15.00,2017-05-27 17:02:00,
2017-05-27 10:07:00,66.6,28.7,30.01,North,360,3.0,8.0,24,0.00,,---,0.00,VWS V15.00,2017-05-27 17:07:00,
2017-05-27 10:12:00,67.4,29.4,30.02,North,360,6.0,8.0,24,0.00,,---,0.00,VWS V15.00,2017-05-27 17:12:00,
2017-05-27 10:17:00,67.7,26.4,30.02,North,360,8.0,9.0,21,0.00,,---,0.00,VWS V15.00,2017-05-27 17:17:00,
2017-05-27 10:22:00,67.0,26.9,30.02,North,360,3.0,11.0,22,0.00,,---,0.00,VWS V15.00,2017-05-27 17:22:00,
2017-05-27 10:27:00,67.3,28.3,30.02,North,360,9.0,11.0,23,0.00,,---,0.00,VWS V15.00,2017-05-27 17:27:00,
2017-05-27 10:32:00,67.4,27.3,30.02,North,360,7.0,11.0,22,0.00,,---,0.00,VWS V15.00,2017-05-27 17:32:00,
2017-05-27 10:37:00,67.8,27.6,30.02,North,360,5.0,10.0,22,0.00,,---,0.00,VWS V15.00,2017-05-27 17:37:00,
2017-05-27 10:42:00,68.1,26.7,30.02,North,360,11.0,11.0,21,0.00,,---,0.00,VWS V15.00,2017-05-27 17:42:00,
2017-05-27 10:47:00,68.2,26.8,30.02,North,360,7.0,8.0,21,0.00,,---,0.00,VWS V15.00,2017-05-27 17:47:00,
2017-05-27 10:52:00,68.6,26.0,30.02,North,360,5.0,8.0,20,0.00,,---,0.00,VWS V15.00,2017-05-27 17:52:00,
2017-05-27 10:57:00,68.7,26.0,30.02,North,360,4.0,11.0,20,0.00,,---,0.00,VWS V15.00,2017-05-27 17:57:00,
2017-05-27 11:02:00,69.0,27.5,30.02,North,360,5.0,5.0,21,0.00,,---,0.00,VWS V15.00,2017-05-27 18:02:00,
2017-05-27 11:07:00,69.7,26.9,30.02,North,360,7.0,8.0,20,0.00,,---,0.00,VWS V15.00,2017-05-27 18:07:00,
2017-05-27 11:12:00,69.9,27.0,30.02,North,360,5.0,9.0,20,0.00,,---,0.00,VWS V15.00,2017-05-27 18:12:00,
2017-05-27 11:17:00,70.4,26.2,30.02,North,360,7.0,7.0,19,0.00,,---,0.00,VWS V15.00,2017-05-27 18:17:00,
2017-05-27 11:22:00,70.4,26.2,30.02,North,360,2.0,3.0,19,0.00,,---,0.00,VWS V15.00,2017-05-27 18:22:00,
2017-05-27 11:27:00,71.0,26.7,30.02,North,360,0.0,9.0,19,0.00,,---,0.00,VWS V15.00,2017-05-27 18:27:00,
2017-05-27 11:32:00,71.3,25.6,30.02,North,360,5.0,8.0,18,0.00,,---,0.00,VWS V15.00,2017-05-27 18:32:00,
2017-05-27 11:37:00,70.5,25.0,30.02,North,360,4.0,6.0,18,0.00,,---,0.00,VWS V15.00,2017-05-27 18:37:00,
2017-05-27 11:42:00,71.4,25.7,30.02,North,360,5.0,6.0,18,0.00,,---,0.00,VWS V15.00,2017-05-27 18:42:00,
2017-05-27 11:47:00,71.9,27.4,30.02,North,360,7.0,10.0,19,0.00,,---,0.00,VWS V15.00,2017-05-27 18:47:00,
2017-05-27 11:52:00,72.7,25.4,30.02,North,360,8.0,10.0,17,0.00,,---,0.00,VWS V15.00,2017-05-27 18:52:00,
2017-05-27 11:57:00,72.6,25.3,30.02,North,360,2.0,8.0,17,0.00,,---,0.00,VWS V15.00,2017-05-27 18:57:00,
2017-05-27 12:02:00,72.0,24.8,30.01,North,360,3.0,6.0,17,0.00,,---,0.00,VWS V15.00,2017-05-27 19:02:00,
2017-05-27 12:07:00,72.1,26.3,30.02,North,360,4.0,8.0,18,0.00,,---,0.00,VWS V15.00,2017-05-27 19:07:00,
2017-05-27 12:12:00,72.8,26.9,30.01,North,360,4.0,4.0,18,0.00,,---,0.00,VWS V15.00,2017-05-27 19:12:00,
2017-05-27 12:17:00,72.7,24.0,30.01,North,360,8.0,12.0,16,0.00,,---,0.00,VWS V15.00,2017-05-27 19:17:00,
2017-05-27 12:22:00,72.3,23.6,30.01,North,360,0.0,5.0,16,0.00,,---,0.00,VWS V15.00,2017-05-27 19:22:00,
2017-05-27 12:27:00,72.3,25.1,30.01,North,360,7.0,7.0,17,0.00,,---,0.00,VWS V15.00,2017-05-27 19:27:00,
2017-05-27 12:32:00,72.0,26.2,30.01,North,360,7.0,7.0,18,0.00,,---,0.00,VWS V15.00,2017-05-27 19:32:00,
2017-05-27 12:37:00,72.5,23.8,30.01,North,360,2.0,15.0,16,0.00,,---,0.00,VWS V15.00,2017-05-27 19:37:00,